| time (UTC) | temp F | wind direction | speed MPH | gust MPH | rain 1hr in | rain 24hr in | rain mn in | humidity % | barometer mb |
| 20260507035503 | 50 | 250 | 8.0 | 15.0 | 0.00 | 0.16 | 0.16 | 92 | 1007.4 |
| 20260507034504 | 51 | 260 | 6.0 | 15.0 | 0.00 | 0.16 | 0.16 | 94 | 1007.3 |
| 20260507033504 | 51 | 277 | 7.0 | 14.0 | 0.00 | 0.16 | 0.16 | 95 | 1007.2 |
| 20260507032504 | 51 | 260 | 8.0 | 13.0 | 0.02 | 0.16 | 0.16 | 94 | 1007.0 |
| 20260507031504 | 52 | 274 | 9.0 | 15.0 | 0.04 | 0.16 | 0.16 | 94 | 1006.9 |
| 20260507025504 | 52 | 270 | 10.0 | 20.0 | 0.04 | 0.16 | 0.16 | 91 | 1006.8 |
| 20260507024503 | 53 | 280 | 9.0 | 20.0 | 0.04 | 0.16 | 0.16 | 92 | 1006.7 |
| 20260507023505 | 54 | 261 | 9.0 | 16.0 | 0.05 | 0.16 | 0.16 | 93 | 1006.9 |
| 20260507022504 | 55 | 270 | 7.0 | 15.0 | 0.03 | 0.14 | 0.14 | 93 | 1007.3 |
| 20260507021503 | 56 | 276 | 9.0 | 17.0 | 0.01 | 0.12 | 0.12 | 92 | 1006.7 |
| 20260507014503 | 57 | 273 | 9.0 | 14.0 | 0.01 | 0.12 | 0.12 | 96 | 1006.4 |
| 20260507013504 | 58 | 277 | 7.0 | 15.0 | 0.00 | 0.11 | 0.11 | 96 | 1006.3 |
| 20260507012503 | 58 | 278 | 5.0 | 10.0 | 0.00 | 0.11 | 0.11 | 95 | 1006.1 |
| 20260507011503 | 58 | 277 | 8.0 | 16.0 | 0.00 | 0.11 | 0.11 | 95 | 1005.9 |
| 20260507010504 | 58 | 278 | 5.0 | 16.0 | 0.00 | 0.11 | 0.11 | 95 | 1006.0 |
| 20260507005504 | 58 | 282 | 7.0 | 14.0 | 0.00 | 0.11 | 0.11 | 95 | 1006.1 |
| 20260507003504 | 58 | 286 | 5.0 | 13.0 | 0.00 | 0.11 | 0.11 | 94 | 1005.8 |
| 20260507001504 | 59 | 285 | 4.0 | 12.0 | 0.00 | 0.11 | 0.11 | 94 | 1005.6 |
| 20260507000503 | 59 | 285 | 5.0 | 14.0 | 0.00 | 0.11 | 0.11 | 93 | 1005.6 |
| 20260506235504 | 59 | 285 | 5.0 | 14.0 | 0.00 | 0.11 | 0.11 | 94 | 1005.5 |
| 20260506234504 | 59 | 285 | 3.0 | 13.0 | 0.00 | 0.11 | 0.11 | 93 | 1005.5 |
| 20260506233504 | 59 | 286 | 2.0 | 7.0 | 0.00 | 0.11 | 0.11 | 93 | 1005.4 |
| 20260506232503 | 59 | 285 | 8.0 | 15.0 | 0.00 | 0.11 | 0.11 | 93 | 1005.4 |
| 20260506231504 | 59 | 273 | 1.0 | 12.0 | 0.00 | 0.11 | 0.11 | 93 | 1005.4 |
| 20260506225504 | 59 | 276 | 7.0 | 13.0 | 0.00 | 0.11 | 0.11 | 93 | 1005.4 |
| 20260506224504 | 59 | 277 | 5.0 | 14.0 | 0.00 | 0.11 | 0.11 | 93 | 1005.6 |
| 20260506223504 | 59 | 282 | 5.0 | 15.0 | 0.00 | 0.11 | 0.11 | 93 | 1005.6 |
| 20260506222503 | 59 | 284 | 5.0 | 14.0 | 0.00 | 0.11 | 0.11 | 94 | 1005.6 |
| 20260506221504 | 58 | 278 | 5.0 | 16.0 | 0.00 | 0.11 | 0.11 | 94 | 1005.6 |
| 20260506220504 | 58 | 283 | 5.0 | 13.0 | 0.01 | 0.11 | 0.11 | 94 | 1005.7 |
| 20260506215503 | 58 | 281 | 3.0 | 12.0 | 0.03 | 0.11 | 0.11 | 94 | 1005.7 |
| 20260506214504 | 58 | 284 | 3.0 | 10.0 | 0.03 | 0.11 | 0.11 | 94 | 1005.7 |
| 20260506212504 | 58 | 279 | 6.0 | 13.0 | 0.04 | 0.11 | 0.11 | 95 | 1005.7 |
| 20260506211504 | 58 | 287 | 4.0 | 12.0 | 0.04 | 0.11 | 0.11 | 95 | 1005.7 |
| 20260506210503 | 58 | 287 | 3.0 | 13.0 | 0.04 | 0.10 | 0.10 | 95 | 1005.7 |
| 20260506205504 | 59 | 286 | 5.0 | 12.0 | 0.03 | 0.08 | 0.08 | 94 | 1005.8 |
| 20260506204504 | 59 | 275 | 3.0 | 10.0 | 0.03 | 0.08 | 0.08 | 95 | 1006.0 |
| 20260506203504 | 59 | 285 | 2.0 | 17.0 | 0.04 | 0.08 | 0.08 | 94 | 1006.1 |
| 20260506202504 | 59 | 285 | 4.0 | 12.0 | 0.03 | 0.07 | 0.07 | 95 | 1006.1 |
| 20260506201504 | 59 | 278 | 4.0 | 13.0 | 0.04 | 0.07 | 0.07 | 94 | 1006.2 |
| 20260506200504 | 59 | 285 | 2.0 | 9.0 | 0.03 | 0.06 | 0.06 | 94 | 1006.4 |
| 20260506195504 | 60 | 285 | 3.0 | 12.0 | 0.02 | 0.05 | 0.05 | 93 | 1006.4 |
| 20260506194503 | 60 | 282 | 3.0 | 9.0 | 0.02 | 0.05 | 0.05 | 93 | 1006.5 |
| 20260506192504 | 60 | 287 | 4.0 | 12.0 | 0.01 | 0.04 | 0.04 | 91 | 1006.6 |
| 20260506190504 | 61 | 289 | 4.0 | 10.0 | 0.01 | 0.03 | 0.03 | 90 | 1006.7 |
| 20260506183505 | 61 | 285 | 5.0 | 9.0 | 0.02 | 0.03 | 0.03 | 89 | 1007.0 |
| 20260506182503 | 61 | 283 | 3.0 | 9.0 | 0.03 | 0.03 | 0.03 | 88 | 1007.2 |
| 20260506181503 | 61 | 277 | 1.0 | 7.0 | 0.03 | 0.03 | 0.03 | 88 | 1007.4 |
| 20260506180504 | 61 | 285 | 2.0 | 6.0 | 0.02 | 0.02 | 0.02 | 87 | 1007.7 |
| 20260506174503 | 62 | 283 | 3.0 | 8.0 | 0.01 | 0.01 | 0.01 | 83 | 1007.9 |
| 20260506173504 | 63 | 283 | 2.0 | 9.0 | 0.01 | 0.01 | 0.01 | 80 | 1008.1 |
| 20260506172504 | 63 | 285 | 9.0 | 15.0 | 0.00 | 0.00 | 0.00 | 75 | 1008.1 |
| 20260506171505 | 64 | 283 | 3.0 | 15.0 | 0.00 | 0.00 | 0.00 | 73 | 1007.9 |
| 20260506170504 | 64 | 283 | 6.0 | 14.0 | 0.00 | 0.00 | 0.00 | 71 | 1008.0 |
| 20260506163504 | 65 | 289 | 7.0 | 20.0 | 0.00 | 0.00 | 0.00 | 68 | 1008.1 |
| 20260506162503 | 65 | 297 | 8.0 | 21.0 | 0.00 | 0.01 | 0.00 | 68 | 1008.2 |
| 20260506161503 | 65 | 285 | 6.0 | 18.0 | 0.00 | 0.01 | 0.00 | 68 | 1008.4 |
| 20260506160503 | 65 | 295 | 7.0 | 16.0 | 0.00 | 0.01 | 0.00 | 68 | 1008.5 |
| 20260506155503 | 65 | 295 | 12.0 | 20.0 | 0.00 | 0.01 | 0.00 | 67 | 1008.6 |
| 20260506154504 | 65 | 289 | 9.0 | 21.0 | 0.00 | 0.01 | 0.00 | 68 | 1008.8 |
| 20260506153505 | 65 | 278 | 9.0 | 21.0 | 0.00 | 0.01 | 0.00 | 68 | 1009.0 |
| 20260506152504 | 65 | 291 | 9.0 | 20.0 | 0.00 | 0.02 | 0.00 | 67 | 1009.0 |
| 20260506151503 | 65 | 290 | 6.0 | 17.0 | 0.00 | 0.02 | 0.00 | 67 | 1009.2 |
| 20260506150504 | 65 | 285 | 10.0 | 20.0 | 0.00 | 0.02 | 0.00 | 67 | 1009.2 |
| 20260506145503 | 66 | 289 | 6.0 | 20.0 | 0.00 | 0.02 | 0.00 | 67 | 1009.3 |
| 20260506144504 | 66 | 286 | 8.0 | 18.0 | 0.00 | 0.02 | 0.00 | 66 | 1008.9 |
| 20260506143504 | 66 | 287 | 7.0 | 15.0 | 0.00 | 0.02 | 0.00 | 66 | 1009.1 |
| 20260506142504 | 66 | 287 | 6.0 | 20.0 | 0.00 | 0.02 | 0.00 | 66 | 1009.1 |
| 20260506141504 | 66 | 280 | 7.0 | 14.0 | 0.00 | 0.02 | 0.00 | 68 | 1009.0 |
| 20260506140504 | 65 | 282 | 8.0 | 16.0 | 0.00 | 0.05 | 0.00 | 69 | 1008.8 |
| 20260506135503 | 65 | 284 | 5.0 | 18.0 | 0.00 | 0.05 | 0.00 | 70 | 1008.7 |
| 20260506134503 | 65 | 281 | 5.0 | 12.0 | 0.00 | 0.06 | 0.00 | 71 | 1008.6 |
| 20260506133504 | 64 | 279 | 3.0 | 15.0 | 0.00 | 0.06 | 0.00 | 72 | 1008.8 |
| 20260506131504 | 64 | 283 | 6.0 | 15.0 | 0.00 | 0.06 | 0.00 | 72 | 1009.0 |
| 20260506130504 | 64 | 284 | 8.0 | 25.0 | 0.00 | 0.06 | 0.00 | 73 | 1009.0 |
| 20260506125504 | 63 | 284 | 8.0 | 20.0 | 0.00 | 0.06 | 0.00 | 74 | 1009.1 |
| 20260506124503 | 63 | 285 | 6.0 | 17.0 | 0.00 | 0.06 | 0.00 | 76 | 1009.1 |
| 20260506123504 | 62 | 286 | 8.0 | 17.0 | 0.00 | 0.06 | 0.00 | 77 | 1009.3 |
| 20260506122503 | 62 | 277 | 9.0 | 16.0 | 0.00 | 0.06 | 0.00 | 78 | 1009.2 |
| 20260506121504 | 61 | 286 | 5.0 | 16.0 | 0.00 | 0.06 | 0.00 | 78 | 1009.1 |
| 20260506115504 | 61 | 288 | 9.0 | 17.0 | 0.00 | 0.06 | 0.00 | 78 | 1009.3 |
| 20260506114504 | 61 | 306 | 9.0 | 23.0 | 0.00 | 0.06 | 0.00 | 78 | 1009.4 |
| 20260506113504 | 61 | 283 | 6.0 | 12.0 | 0.00 | 0.06 | 0.00 | 79 | 1009.3 |
| 20260506112504 | 60 | 285 | 7.0 | 15.0 | 0.00 | 0.06 | 0.00 | 79 | 1009.5 |
| 20260506111504 | 60 | 289 | 6.0 | 20.0 | 0.00 | 0.06 | 0.00 | 79 | 1009.6 |
| 20260506105504 | 60 | 287 | 7.0 | 17.0 | 0.00 | 0.06 | 0.00 | 79 | 1009.6 |
| 20260506104504 | 60 | 285 | 6.0 | 14.0 | 0.00 | 0.06 | 0.00 | 79 | 1009.3 |
| 20260506103504 | 60 | 283 | 9.0 | 20.0 | 0.00 | 0.06 | 0.00 | 79 | 1009.5 |
| 20260506102503 | 60 | 288 | 5.0 | 13.0 | 0.00 | 0.06 | 0.00 | 79 | 1009.3 |
| 20260506101504 | 60 | 314 | 6.0 | 18.0 | 0.00 | 0.06 | 0.00 | 79 | 1009.4 |
| 20260506100504 | 59 | 284 | 6.0 | 12.0 | 0.00 | 0.06 | 0.00 | 78 | 1009.3 |
| 20260506095503 | 59 | 285 | 6.0 | 10.0 | 0.00 | 0.06 | 0.00 | 78 | 1009.2 |
| 20260506094504 | 59 | 284 | 5.0 | 15.0 | 0.00 | 0.06 | 0.00 | 78 | 1009.3 |
| 20260506093503 | 59 | 281 | 6.0 | 12.0 | 0.00 | 0.06 | 0.00 | 78 | 1009.3 |
| 20260506092504 | 59 | 280 | 3.0 | 10.0 | 0.00 | 0.06 | 0.00 | 77 | 1009.2 |
| 20260506091503 | 59 | 283 | 4.0 | 12.0 | 0.00 | 0.06 | 0.00 | 77 | 1009.2 |
| 20260506090503 | 60 | 282 | 3.0 | 15.0 | 0.00 | 0.06 | 0.00 | 76 | 1009.4 |
| 20260506084503 | 60 | 281 | 3.0 | 9.0 | 0.00 | 0.06 | 0.00 | 75 | 1009.3 |
| 20260506083504 | 60 | 285 | 6.0 | 14.0 | 0.00 | 0.06 | 0.00 | 74 | 1009.5 |
| 20260506082504 | 60 | 284 | 6.0 | 13.0 | 0.00 | 0.06 | 0.00 | 74 | 1009.5 |
| 20260506081503 | 60 | 283 | 6.0 | 14.0 | 0.00 | 0.06 | 0.00 | 73 | 1009.4 |
| 20260506080503 | 61 | 281 | 6.0 | 12.0 | 0.00 | 0.06 | 0.00 | 73 | 1009.3 |
| 20260506073504 | 61 | 290 | 9.0 | 17.0 | 0.00 | 0.06 | 0.00 | 70 | 1009.4 |
| 20260506072504 | 62 | 288 | 9.0 | 14.0 | 0.00 | 0.06 | 0.00 | 69 | 1009.3 |
| 20260506070504 | 62 | 280 | 9.0 | 17.0 | 0.00 | 0.06 | 0.00 | 68 | 1009.1 |
| 20260506060504 | 62 | 280 | 9.0 | 17.0 | 0.00 | 0.06 | 0.00 | 65 | 1009.2 |
| 20260506050504 | 63 | 287 | 10.0 | 17.0 | 0.00 | 0.06 | 0.00 | 62 | 1009.4 |
| 20260506042503 | 64 | 285 | 7.0 | 15.0 | 0.00 | 0.06 | 0.00 | 60 | 1009.7 |
| 20260506041504 | 64 | 282 | 8.0 | 17.0 | 0.00 | 0.06 | 0.00 | 60 | 1009.7 |